FLOCK 3P-61 (42009 NORAD) Tracking and Keplerian Element Data

This shows tracking and keplerian element data for the satellite.

Feedback or suggestion? Click here.




ElementValue
Catalog42009
NameFLOCK 3P-61
Epoch Orbit32650
Epoch Day359.09618269
Epoch Year2022
RAAN65.8353
Inclination97.2463
Eccentricity0.0003839
Argument of Perigee250.3314
Mean Anonmoly109.7533
Mean Motion15.68172887
Decay Rate0.00161545
L11 42009U 17008BP 22359.09618269 .00161545 00000+0 14263-2 0 9992
L22 42009 97.2463 65.8353 0003839 250.3314 109.7533 15.68172887326506



Live tracking and technical data element details for FLOCK 3P-61 (NORAD 42009). FLOCK 3P-61 can be tracked NOW for your location showing map with azimuth and elevation plus other details from your city location.







IsCatalogInMostPopularTable: catalog: 42009, numindb: 554
Update: records affected: 1



GetName: 42009 FLOCK 3P-61

Hit Count: updated at: Thu, 22 May 2025 03:00:41 GMT